Winfield, KS

12:12 AM CST on December 06, 2019 (GMT -0600)
Strother

Weather History for KWLD - October, 2019

Change the Weather History Date:

Tuesday, October 29, 2019

  Actual Average Record
Temperature  
Mean Temperature 31 °F -  
Max Temperature 37 °F 63 °F 82 °F (2004)
Min Temperature 25 °F 44 °F 32 °F (2017)
Degree Days  
Heating Degree Days 34    
Moisture  
Dew Point 29 °F    
Average Humidity 88    
Maximum Humidity 100    
Minimum Humidity 76    
Precipitation  
Precipitation 0.05 in - - ()
Sea Level Pressure  
Sea Level Pressure 30.23 in    
Wind  
Wind Speed 8 mph ()    
Max Wind Speed 16 mph    
Max Gust Speed 21 mph    
Visibility 7.9 miles    
Events Rain    
Averages and records for this station are not official NWS values.
T = Trace of Precipitation, MM = Missing Value Source: Averaged Metar Reports

Daily Weather History Graph

Daily Weather History Graph

Search for Another Location

Airport or City:

Astronomy

Oct. 29, 2019 Rise Set
Actual Time 7:49 AM CDT 6:33 PM CDT
Civil Twilight 7:22 AM CDT 7:00 PM CDT
Nautical Twilight 6:51 AM CDT 7:31 PM CDT
Astronomical Twilight 6:21 AM CDT 8:01 PM CDT
Moon 9:23 AM CDT (10/29) 8:00 PM CDT (10/29)
Length of Visible Light 11h 38m
Length of Day
10h 44m
Waxing Crescent, 3% of the Moon is Illuminated
Oct 29
Waxing Crescent
Nov 4
First Quarter
Nov 12
Full
Nov 19
Last Quarter
Nov 26
New

Hourly Weather History & Observations

Time (CDT) Temp. Windchill Dew Point Humidity Pressure Visibility Wind Dir Wind Speed Gust Speed Precip Events Conditions
12:08 AM 30.0 °F 21.7 °F 24.1 °F 79% 30.20 in 9.0 mi North 9.2 mph - 0.00 in   Scattered Clouds
12:54 AM 28.0 °F 20.8 °F 24.1 °F 85% 30.22 in 10.0 mi North 6.9 mph - 0.00 in   Clear
1:54 AM 26.1 °F 20.5 °F 23.0 °F 88% 30.24 in 10.0 mi NNW 4.6 mph - N/A   Clear
2:54 AM 26.1 °F 17.6 °F 23.0 °F 88% 30.24 in 10.0 mi North 8.1 mph - N/A   Partly Cloudy
3:06 AM 27.0 °F 18.7 °F 24.1 °F 89% 30.21 in 10.0 mi North 8.1 mph - N/A   Mostly Cloudy
3:22 AM 26.1 °F 19.4 °F 23.0 °F 88% 30.21 in 10.0 mi North 5.8 mph - N/A   Scattered Clouds
3:54 AM 25.0 °F 18.1 °F 23.0 °F 92% 30.24 in 10.0 mi North 5.8 mph - N/A   Clear
4:54 AM 25.0 °F 16.3 °F 23.0 °F 92% 30.23 in 10.0 mi North 8.1 mph - N/A   Clear
5:54 AM 26.1 °F 18.4 °F 23.0 °F 88% 30.25 in 10.0 mi NNE 6.9 mph - N/A   Clear
6:54 AM 26.1 °F 20.5 °F 23.0 °F 88% 30.26 in 10.0 mi North 4.6 mph - N/A   Clear
7:26 AM 25.0 °F 17.1 °F 23.0 °F 92% 30.22 in 10.0 mi North 6.9 mph - N/A   Mostly Cloudy
7:54 AM 26.1 °F 18.4 °F 24.1 °F 92% 30.27 in 10.0 mi North 6.9 mph - N/A   Overcast
8:54 AM 28.0 °F 20.8 °F 25.0 °F 88% 30.28 in 9.0 mi NNE 6.9 mph - N/A   Mostly Cloudy
9:07 AM 28.9 °F 21.1 °F 26.1 °F 89% 30.25 in 9.0 mi NNE 8.1 mph - N/A   Mostly Cloudy
9:26 AM 28.9 °F 21.1 °F 26.1 °F 89% 30.25 in 9.0 mi NNE 8.1 mph - N/A   Mostly Cloudy
9:54 AM 30.9 °F 22.8 °F 28.0 °F 89% 30.27 in 9.0 mi NNE 9.2 mph - N/A   Mostly Cloudy
10:54 AM 34.0 °F 26.0 °F 28.0 °F 79% 30.28 in 10.0 mi NE 10.4 mph - N/A   Mostly Cloudy
11:08 AM 35.1 °F 27.4 °F 28.9 °F 78% 30.25 in 10.0 mi NNE 10.4 mph - N/A   Overcast
11:30 AM 35.1 °F 27.9 °F 28.9 °F 78% 30.24 in 10.0 mi NE 9.2 mph - N/A   Overcast
11:54 AM 36.0 °F 28.5 °F 28.9 °F 76% 30.27 in 10.0 mi NNE 10.4 mph - N/A   Overcast
12:54 PM 36.0 °F 28.5 °F 30.9 °F 82% 30.25 in 8.0 mi NNE 10.4 mph - 0.00 in   Overcast
1:54 PM 36.0 °F 29.0 °F 30.9 °F 82% 30.24 in 9.0 mi NE 9.2 mph - 0.00 in   Overcast
2:54 PM 37.0 °F 28.5 °F 32.0 °F 82% 30.20 in 9.0 mi NNE 13.8 mph - 0.00 in   Overcast
3:54 PM 37.0 °F 30.4 °F 33.1 °F 86% 30.22 in 5.0 mi North 9.2 mph - 0.04 in Rain Light Rain
4:54 PM 36.0 °F 29.6 °F 33.1 °F 89% 30.21 in 7.0 mi NNE 8.1 mph - 0.01 in   Overcast
5:54 PM 36.0 °F 29.0 °F 33.1 °F 89% 30.20 in 8.0 mi NNE 9.2 mph - N/A   Overcast
6:54 PM 37.0 °F 29.3 °F 33.1 °F 86% 30.20 in 8.0 mi NNE 11.5 mph - N/A   Overcast
7:54 PM 35.1 °F 25.9 °F 33.1 °F 92% 30.21 in 5.0 mi NNE 13.8 mph - N/A   Overcast
8:02 PM 35.1 °F 27.9 °F 33.1 °F 92% 30.18 in 4.0 mi NNE 9.2 mph - N/A   Overcast
8:54 PM 35.1 °F 25.2 °F 33.1 °F 92% 30.22 in 5.0 mi NNE 16.1 mph - N/A   Overcast
9:51 PM 35.6 °F 28.6 °F 33.8 °F 93% 30.20 in 4.0 mi NNE 9.2 mph - 0.00 in   Overcast
9:54 PM 35.1 °F 26.9 °F 33.1 °F 92% 30.24 in 4.0 mi NNE 11.5 mph - 0.00 in   Overcast
10:08 PM 35.1 °F 26.4 °F 33.1 °F 92% 30.21 in 4.0 mi NNE 12.7 mph 20.7 mph N/A   Overcast
10:52 PM 33.8 °F 23.9 °F 33.8 °F 100% 30.22 in 4.0 mi NNE 15.0 mph - N/A   Overcast
10:54 PM 34.0 °F 24.6 °F 32.0 °F 92% 30.25 in 4.0 mi NNE 13.8 mph - N/A   Overcast
11:47 PM 34.0 °F 25.0 °F 32.0 °F 92% 30.20 in 5.0 mi NNE 12.7 mph - N/A   Overcast
11:54 PM 34.0 °F 24.2 °F 32.0 °F 92% 30.22 in 5.0 mi NNE 15.0 mph - N/A   Overcast